TimeCDT,TemperatureF,Dew PointF,Humidity,Sea Level PressureIn,VisibilityMPH,Wind Direction,Wind SpeedMPH,Gust SpeedMPH,PrecipitationIn,Events,Conditions,WindDirDegrees,DateUTC
12:15 AM,50.4,45.5,83,30.02,10.0,ESE,8.1,-,N/A,,Clear,120,2013-09-23 05:15:00
12:35 AM,50.0,45.1,83,30.02,10.0,ESE,10.4,-,N/A,,Clear,120,2013-09-23 05:35:00
12:55 AM,49.8,45.1,84,30.02,10.0,ESE,11.5,-,N/A,,Clear,120,2013-09-23 05:55:00
1:15 AM,49.3,45.3,86,30.02,10.0,ESE,11.5,-,N/A,,Clear,120,2013-09-23 06:15:00
1:35 AM,48.7,45.5,89,30.03,10.0,ESE,9.2,-,N/A,,Clear,120,2013-09-23 06:35:00
1:55 AM,48.4,47.3,96,30.03,10.0,SE,10.4,-,N/A,,Clear,130,2013-09-23 06:55:00
2:15 AM,48.2,47.3,97,30.03,10.0,ESE,9.2,-,N/A,,Clear,120,2013-09-23 07:15:00
2:35 AM,48.0,47.1,97,30.03,10.0,SE,8.1,-,N/A,,Clear,130,2013-09-23 07:35:00
2:55 AM,47.5,47.1,99,30.03,10.0,SE,6.9,-,N/A,,Clear,130,2013-09-23 07:55:00
3:15 AM,47.3,46.8,98,30.03,10.0,SE,8.1,-,N/A,,Clear,130,2013-09-23 08:15:00
3:35 AM,46.9,46.8,99,30.03,10.0,SE,9.2,-,N/A,,Clear,130,2013-09-23 08:35:00
3:55 AM,46.8,46.8,100,30.03,10.0,ESE,9.2,-,N/A,,Clear,120,2013-09-23 08:55:00
4:15 AM,46.6,46.6,100,30.04,10.0,SE,6.9,-,N/A,,Clear,130,2013-09-23 09:15:00
4:35 AM,46.4,46.4,100,30.04,10.0,ESE,6.9,-,N/A,,Clear,120,2013-09-23 09:35:00
4:55 AM,46.2,46.2,100,30.04,10.0,ESE,6.9,-,N/A,,Clear,120,2013-09-23 09:55:00
5:15 AM,45.9,45.9,100,30.04,10.0,ESE,6.9,-,N/A,,Clear,120,2013-09-23 10:15:00
5:35 AM,45.9,45.9,100,30.04,10.0,ESE,6.9,-,N/A,,Clear,120,2013-09-23 10:35:00
5:55 AM,45.5,45.5,100,30.04,10.0,SE,6.9,-,N/A,,Clear,130,2013-09-23 10:55:00
6:15 AM,45.5,45.5,100,30.04,10.0,ESE,6.9,-,N/A,,Clear,120,2013-09-23 11:15:00
6:35 AM,45.3,45.3,100,30.04,10.0,ESE,8.1,-,N/A,,Clear,120,2013-09-23 11:35:00
6:55 AM,45.3,45.3,100,30.05,10.0,SE,9.2,-,N/A,,Clear,130,2013-09-23 11:55:00
7:15 AM,45.7,45.7,100,30.06,10.0,ESE,8.1,-,N/A,,Clear,120,2013-09-23 12:15:00
7:35 AM,46.6,46.6,100,30.06,10.0,ESE,6.9,-,N/A,,Clear,120,2013-09-23 12:35:00
7:55 AM,47.7,47.3,99,30.07,10.0,SE,8.1,-,N/A,,Clear,130,2013-09-23 12:55:00
8:15 AM,49.1,48.0,96,30.07,10.0,SE,10.4,-,N/A,,Clear,130,2013-09-23 13:15:00
8:35 AM,50.0,48.7,95,30.07,10.0,SE,10.4,-,N/A,,Clear,140,2013-09-23 13:35:00
8:55 AM,51.4,49.1,92,30.08,10.0,SSE,9.2,-,N/A,,Clear,150,2013-09-23 13:55:00
9:15 AM,52.9,49.8,89,30.08,10.0,SSE,11.5,-,N/A,,Clear,150,2013-09-23 14:15:00
9:35 AM,53.6,49.1,85,30.08,10.0,SE,13.8,-,N/A,,Clear,140,2013-09-23 14:35:00
9:55 AM,54.9,49.1,81,30.09,10.0,SE,12.7,-,N/A,,Clear,140,2013-09-23 14:55:00
10:15 AM,57.2,49.1,74,30.08,10.0,SSE,12.7,-,N/A,,Clear,150,2013-09-23 15:15:00
10:35 AM,58.1,48.4,70,30.08,10.0,SSE,9.2,-,N/A,,Clear,150,2013-09-23 15:35:00
10:55 AM,59.4,48.9,68,30.08,10.0,SE,11.5,-,N/A,,Clear,140,2013-09-23 15:55:00
11:15 AM,60.6,49.3,66,30.08,10.0,South,10.4,-,N/A,,Clear,170,2013-09-23 16:15:00
11:35 AM,62.1,49.8,64,30.08,10.0,SE,9.2,-,N/A,,Clear,140,2013-09-23 16:35:00
11:55 AM,62.8,50.4,64,30.07,10.0,SSE,10.4,-,N/A,,Clear,150,2013-09-23 16:55:00
12:15 PM,64.0,50.5,61,30.07,10.0,SSE,9.2,-,N/A,,Clear,160,2013-09-23 17:15:00
12:35 PM,64.6,50.2,60,30.07,10.0,SSE,12.7,16.1,N/A,,Clear,150,2013-09-23 17:35:00
1:15 PM,65.7,50.2,57,30.05,10.0,SSE,10.4,17.3,N/A,,Clear,150,2013-09-23 18:15:00
1:35 PM,67.1,50.7,56,30.04,10.0,SE,10.4,-,N/A,,Clear,140,2013-09-23 18:35:00
1:55 PM,66.7,50.5,56,30.03,10.0,SE,10.4,16.1,N/A,,Clear,140,2013-09-23 18:55:00
2:15 PM,68.0,50.2,53,30.02,10.0,SSE,9.2,16.1,N/A,,Clear,160,2013-09-23 19:15:00
2:35 PM,68.2,50.4,53,30.02,10.0,South,10.4,18.4,N/A,,Clear,170,2013-09-23 19:35:00
2:55 PM,68.7,49.6,51,30.01,10.0,SE,12.7,18.4,N/A,,Clear,140,2013-09-23 19:55:00
3:15 PM,68.7,48.9,49,30.01,10.0,SSE,16.1,19.6,N/A,,Clear,150,2013-09-23 20:15:00
3:35 PM,69.1,49.3,49,30.01,10.0,SE,13.8,-,N/A,,Clear,140,2013-09-23 20:35:00
3:55 PM,69.3,50.0,50,30.01,10.0,SE,12.7,17.3,N/A,,Clear,140,2013-09-23 20:55:00
4:15 PM,68.9,49.8,51,30.01,10.0,SSE,10.4,-,N/A,,Clear,150,2013-09-23 21:15:00
4:35 PM,68.4,49.3,50,30.00,10.0,SSE,12.7,18.4,N/A,,Clear,150,2013-09-23 21:35:00
4:55 PM,68.2,49.3,51,30.00,10.0,SSE,9.2,-,N/A,,Clear,150,2013-09-23 21:55:00
5:15 PM,67.3,49.6,53,30.00,10.0,ESE,11.5,17.3,N/A,,Clear,120,2013-09-23 22:15:00
5:35 PM,66.2,49.3,54,30.00,10.0,ESE,10.4,-,N/A,,Clear,120,2013-09-23 22:35:00
5:55 PM,65.3,50.0,58,30.00,10.0,ESE,8.1,-,N/A,,Clear,120,2013-09-23 22:55:00
6:15 PM,64.2,50.4,61,30.00,10.0,ESE,6.9,-,N/A,,Clear,120,2013-09-23 23:15:00
6:35 PM,62.1,50.9,67,30.00,10.0,ESE,6.9,-,N/A,,Clear,110,2013-09-23 23:35:00
6:55 PM,59.5,51.3,74,30.00,10.0,ESE,6.9,-,N/A,,Clear,110,2013-09-23 23:55:00
7:15 PM,58.3,50.9,76,30.00,10.0,ESE,8.1,-,N/A,,Clear,110,2013-09-24 00:15:00
7:35 PM,57.0,50.4,78,30.00,10.0,East,6.9,-,N/A,,Clear,100,2013-09-24 00:35:00
7:55 PM,54.5,50.0,85,30.00,10.0,East,8.1,-,N/A,,Clear,100,2013-09-24 00:55:00
8:15 PM,54.5,50.0,85,30.00,10.0,East,6.9,-,N/A,,Clear,100,2013-09-24 01:15:00
8:35 PM,54.0,49.5,85,30.00,10.0,East,8.1,-,N/A,,Clear,100,2013-09-24 01:35:00
8:55 PM,54.5,50.2,85,30.00,10.0,ESE,8.1,-,N/A,,Clear,110,2013-09-24 01:55:00
9:15 PM,55.0,50.5,85,30.00,10.0,ESE,8.1,-,N/A,,Clear,110,2013-09-24 02:15:00
9:35 PM,55.0,50.4,84,30.01,10.0,ESE,9.2,-,N/A,,Clear,110,2013-09-24 02:35:00
9:55 PM,54.5,50.0,85,30.01,10.0,ESE,8.1,-,N/A,,Clear,110,2013-09-24 02:55:00
10:15 PM,54.5,49.5,83,30.01,10.0,ESE,8.1,-,N/A,,Clear,110,2013-09-24 03:15:00
10:35 PM,53.8,49.1,84,30.02,10.0,ESE,8.1,-,N/A,,Clear,110,2013-09-24 03:35:00
10:55 PM,53.6,49.1,85,30.02,10.0,ESE,10.4,-,N/A,,Clear,110,2013-09-24 03:55:00
11:15 PM,53.2,49.1,86,30.02,10.0,ESE,9.2,-,N/A,,Clear,110,2013-09-24 04:15:00
11:35 PM,52.7,48.6,86,30.02,10.0,ESE,9.2,-,N/A,,Clear,120,2013-09-24 04:35:00
11:55 PM,52.0,48.2,87,30.02,10.0,ESE,9.2,-,N/A,,Clear,110,2013-09-24 04:55:00